DW3823 Weather Reports


Display with metric or nautical units.
time (UTC)temp
F
wind
direction
speed
MPH
gust
MPH
rain 1hr
in
rain 24hr
in
rain mn
in
humidity
%
barometer
mb
20260906153032 82 5 1.0 5.0 0.00 0.10 0.05 76 1012.6
20260906152533 82 294 2.0 6.0 0.00 0.10 0.05 76 1012.6
20260906152029 82 27 2.0 5.0 0.00 0.10 0.05 76 1012.7
20260906151528 82 311 0.0 4.0 0.00 0.10 0.05 77 1012.8
20260906151027 82 84 1.0 3.0 0.00 0.10 0.05 79 1012.8
20260906150526 82 264 0.0 4.0 0.00 0.10 0.05 79 1012.8
20260906150036 81 264 1.0 4.0 0.00 0.10 0.05 78 1012.7
20260906145522 81 276 2.0 4.0 0.00 0.10 0.05 79 1013.0
20260906145021 80 48 1.0 5.0 0.00 0.10 0.05 80 1013.0
20260906144526 80 317 1.0 5.0 0.00 0.10 0.05 82 1013.0
20260906144018 79 5 2.0 5.0 0.00 0.10 0.05 82 1013.0
20260906143517 79 316 1.0 4.0 0.00 0.10 0.05 84 1013.1
20260906143016 78 269 1.0 4.0 0.00 0.10 0.05 85 1013.1
20260906142514 78 105 1.0 4.0 0.00 0.10 0.05 86 1012.9
20260906142016 78 109 1.0 4.0 0.00 0.10 0.05 85 1012.9
20260906141514 78 337 1.0 2.0 0.00 0.10 0.05 85 1013.0
20260906141011 77 5 0.0 3.0 0.00 0.10 0.05 85 1013.1
20260906140510 78 65 1.0 4.0 0.00 0.10 0.05 86 1013.0
20260906140013 77 317 1.0 4.0 0.00 0.10 0.05 86 1013.0
20260906135508 77 197 0.0 4.0 0.00 0.10 0.05 87 1013.0
20260906135007 77 232 0.0 4.0 0.00 0.10 0.05 87 1013.1
20260906134514 76 244 0.0 3.0 0.00 0.10 0.05 89 1013.1
20260906134004 76 164 1.0 3.0 0.00 0.10 0.05 88 1013.1
20260906133502 75 248 1.0 4.0 0.00 0.10 0.05 89 1013.1
20260906133001 75 248 1.0 4.0 0.00 0.10 0.05 90 1013.1
20260906132502 75 174 1.0 3.0 0.00 0.10 0.05 91 1013.1
20260906132001 74 238 0.0 4.0 0.00 0.10 0.05 93 1013.2
20260906131601 74 185 0.0 4.0 0.00 0.10 0.05 95 1013.1
20260906131058 73 213 0.0 2.0 0.00 0.10 0.05 96 1013.0
20260906130558 73 213 0.0 1.0 0.00 0.10 0.05 97 1013.0
20260906130059 73 213 0.0 1.0 0.00 0.10 0.05 97 1013.0
20260906125601 72 213 0.0 2.0 0.00 0.10 0.05 98 1012.9
20260906125159 72 213 0.0 2.0 0.00 0.10 0.05 98 1012.8
20260906124556 72 213 0.0 2.0 0.00 0.10 0.05 98 1012.9
20260906124056 72 232 0.0 1.0 0.00 0.10 0.05 98 1012.9
20260906123559 71 232 0.0 0.0 0.00 0.10 0.05 98 1012.9
20260906123055 71 232 0.0 0.0 0.00 0.10 0.05 98 1012.9
20260906122555 71 232 0.0 0.0 0.00 0.10 0.05 98 1012.9
20260906122055 71 232 0.0 0.0 0.00 0.10 0.05 98 1012.9
20260906121555 71 232 0.0 0.0 0.00 0.10 0.05 98 1012.7
20260906121054 71 232 0.0 0.0 0.00 0.10 0.05 98 1012.7
20260906120553 71 232 0.0 0.0 0.00 0.10 0.05 98 1012.5
20260906120053 71 232 0.0 0.0 0.00 0.10 0.05 98 1012.5
20260906115554 70 232 0.0 0.0 0.00 0.10 0.05 97 1012.7
20260906115051 70 232 0.0 0.0 0.00 0.10 0.05 97 1012.5
20260906114605 70 232 0.0 0.0 0.00 0.10 0.05 97 1012.6
20260906114049 70 232 0.0 0.0 0.00 0.10 0.05 97 1012.4
20260906113549 70 232 0.0 0.0 0.00 0.10 0.05 97 1012.5
20260906113051 70 232 0.0 0.0 0.00 0.10 0.05 97 1012.1
20260906112547 70 232 0.0 1.0 0.00 0.10 0.05 97 1012.1
20260906112048 71 232 0.0 1.0 0.00 0.10 0.05 97 1012.0
20260906111550 71 232 0.0 1.0 0.00 0.10 0.05 98 1011.9
20260906111046 71 232 0.0 0.0 0.00 0.10 0.05 97 1012.0
20260906110548 71 232 0.0 0.0 0.00 0.10 0.05 97 1011.8
20260906110046 71 232 0.0 0.0 0.00 0.10 0.05 98 1011.9
20260906105546 71 232 0.0 1.0 0.00 0.10 0.05 97 1011.9
20260906105046 71 232 0.0 1.0 0.00 0.10 0.05 98 1012.0
20260906104601 71 232 0.0 0.0 0.00 0.10 0.05 97 1011.8
20260906104045 71 232 0.0 0.0 0.00 0.10 0.05 97 1011.9
20260906103547 71 232 0.0 1.0 0.00 0.10 0.05 97 1011.9
20260906103044 71 232 0.0 1.0 0.00 0.10 0.05 97 1011.9
20260906102544 71 232 0.0 0.0 0.00 0.10 0.05 97 1012.1
20260906102044 71 232 0.0 1.0 0.00 0.10 0.05 97 1012.0
20260906101544 71 232 0.0 1.0 0.00 0.10 0.05 97 1011.8
20260906101043 71 232 0.0 1.0 0.00 0.10 0.05 97 1012.0
20260906100543 71 232 0.0 0.0 0.00 0.10 0.05 97 1011.9
20260906100043 71 232 0.0 2.0 0.00 0.10 0.05 97 1012.0
20260906095543 71 232 0.0 2.0 0.00 0.10 0.05 97 1011.8
20260906095042 71 232 0.0 1.0 0.00 0.10 0.05 97 1011.9
20260906094542 71 232 0.0 1.0 0.00 0.10 0.05 97 1011.9
20260906094041 71 232 0.0 1.0 0.00 0.10 0.05 97 1011.9
20260906093541 71 232 0.0 2.0 0.00 0.10 0.05 97 1011.9
20260906093045 71 232 0.0 2.0 0.00 0.10 0.05 97 1011.7
20260906092541 71 232 0.0 1.0 0.00 0.10 0.05 97 1011.6
20260906092042 71 232 0.0 2.0 0.00 0.10 0.05 97 1011.6
20260906091541 71 232 0.0 2.0 0.00 0.10 0.05 97 1011.7
20260906091040 71 232 0.0 1.0 0.00 0.10 0.05 97 1011.6
20260906090540 71 232 0.0 1.0 0.00 0.10 0.05 97 1011.6
20260906090040 71 232 0.0 1.0 0.00 0.10 0.05 97 1011.6
20260906085539 71 232 0.0 1.0 0.00 0.10 0.05 97 1011.7
20260906085041 71 232 0.0 1.0 0.00 0.10 0.05 97 1011.7
20260906084539 71 232 0.0 1.0 0.00 0.10 0.05 97 1011.7
20260906084038 71 232 0.0 1.0 0.00 0.10 0.05 97 1011.6
20260906083538 72 232 0.0 3.0 0.00 0.10 0.05 97 1011.5
20260906083038 72 232 0.0 3.0 0.00 0.10 0.05 97 1011.7
20260906082537 72 236 0.0 2.0 0.00 0.10 0.05 97 1011.9
20260906082036 72 236 1.0 2.0 0.00 0.10 0.05 97 1011.7
20260906081536 72 236 0.0 2.0 0.00 0.10 0.05 97 1011.8
20260906081035 72 236 0.0 2.0 0.00 0.10 0.05 97 1011.8
20260906080535 72 236 0.0 3.0 0.00 0.10 0.05 97 1011.5
20260906080038 72 190 0.0 2.0 0.00 0.10 0.05 97 1011.5
20260906075533 73 190 0.0 4.0 0.00 0.10 0.05 97 1011.6
20260906075033 73 187 1.0 4.0 0.00 0.10 0.05 97 1011.8
20260906074533 73 220 1.0 7.0 0.00 0.10 0.05 97 1011.8
20260906074032 73 219 1.0 7.0 0.00 0.10 0.05 97 1011.7
20260906073532 73 260 1.0 4.0 0.00 0.10 0.05 97 1011.6
20260906073035 73 252 2.0 4.0 0.00 0.10 0.05 97 1011.5
20260906072532 73 277 0.0 2.0 0.00 0.10 0.05 97 1011.4
20260906072033 72 277 0.0 1.0 0.00 0.10 0.05 97 1011.3
20260906071531 73 277 0.0 1.0 0.00 0.10 0.05 97 1011.3
20260906071032 73 277 0.0 0.0 0.00 0.10 0.05 97 1011.1
20260906070531 73 277 0.0 0.0 0.00 0.10 0.05 97 1011.1
20260906070029 73 277 0.0 0.0 0.00 0.10 0.05 96 1011.1
20260906065530 73 277 0.0 0.0 0.00 0.10 0.05 96 1011.2
20260906065029 73 277 0.0 0.0 0.00 0.10 0.05 96 1011.2
20260906064528 73 277 0.0 0.0 0.00 0.10 0.05 96 1011.3
20260906064028 73 277 0.0 0.0 0.01 0.10 0.05 96 1011.2
20260906063527 73 277 0.0 0.0 0.01 0.10 0.05 96 1011.4
20260906063027 73 277 0.0 0.0 0.01 0.10 0.05 96 1011.5
20260906062525 73 277 0.0 1.0 0.01 0.10 0.05 96 1011.6
20260906062025 73 277 0.0 1.0 0.02 0.10 0.05 95 1011.7
20260906061525 73 277 0.0 2.0 0.02 0.10 0.05 95 1011.8
20260906061023 73 277 0.0 2.0 0.03 0.10 0.05 95 1012.1
20260906060522 73 277 0.0 1.0 0.04 0.10 0.05 94 1012.1
20260906060022 73 277 0.0 2.0 0.05 0.10 0.05 94 1012.3
20260906055522 73 276 0.0 3.0 0.07 0.10 0.05 94 1012.3
20260906055020 73 276 0.0 3.0 0.08 0.10 0.05 94 1012.4
20260906054519 73 317 1.0 2.0 0.08 0.10 0.05 94 1012.4
20260906054018 73 316 0.0 3.0 0.07 0.09 0.04 93 1012.4
20260906053518 74 317 0.0 2.0 0.07 0.09 0.04 93 1012.5
20260906053017 74 307 0.0 2.0 0.07 0.09 0.04 93 1012.6
20260906052520 74 307 0.0 2.0 0.07 0.09 0.04 92 1012.2
20260906052014 74 307 0.0 2.0 0.06 0.08 0.03 92 1012.0
20260906051513 74 307 0.0 3.0 0.06 0.08 0.03 91 1012.2
20260906051015 75 329 1.0 2.0 0.05 0.07 0.02 91 1012.7
20260906050510 75 330 0.0 1.0 0.04 0.06 0.01 90 1012.8
20260906050009 75 360 0.0 1.0 0.03 0.05 0.00 89 1013.2
20260906045509 76 360 0.0 2.0 0.01 0.03 0.03 88 1013.3
20260906045009 76 360 0.0 3.0 0.00 0.02 0.02 87 1013.1
20260906044509 76 360 1.0 3.0 0.00 0.02 0.02 87 1013.7
20260906044008 76 360 0.0 2.0 0.00 0.02 0.02 87 1013.0
20260906043508 76 360 0.0 3.0 0.00 0.02 0.02 86 1012.9
20260906043008 76 304 0.0 3.0 0.00 0.02 0.02 86 1012.9
20260906042507 76 303 1.0 3.0 0.00 0.02 0.02 87 1012.8
20260906042009 75 360 1.0 5.0 0.00 0.02 0.02 89 1013.1
20260906041508 75 360 2.0 5.0 0.00 0.02 0.02 89 1013.3
20260906041011 75 265 0.0 2.0 0.00 0.02 0.02 90 1012.2
20260906040507 75 265 0.0 0.0 0.00 0.02 0.02 89 1011.8
20260906040008 76 360 0.0 1.0 0.00 0.02 0.02 89 1011.9
20260906035506 75 265 0.0 1.0 0.00 0.02 0.02 90 1012.2
20260906035006 75 360 0.0 1.0 0.00 0.02 0.02 90 1012.4
20260906034510 75 265 0.0 1.0 0.00 0.02 0.02 90 1012.7
20260906034007 75 360 0.0 1.0 0.00 0.02 0.02 91 1012.7
20260906033506 74 265 0.0 1.0 0.00 0.02 0.02 91 1012.6
20260906033006 75 265 0.0 1.0 0.00 0.02 0.02 90 1012.5
20260906032506 75 265 0.0 0.0 0.00 0.02 0.02 90 1012.3
20260906032006 75 265 0.0 0.0 0.00 0.02 0.02 89 1012.2
20260906031506 75 265 0.0 1.0 0.00 0.02 0.02 88 1012.1
20260906031005 75 265 0.0 2.0 0.00 0.02 0.02 89 1012.0
20260906030507 75 265 0.0 2.0 0.00 0.02 0.02 90 1011.9
20260906030005 75 360 0.0 1.0 0.00 0.02 0.02 90 1011.9
20260906025505 75 265 0.0 1.0 0.00 0.02 0.02 90 1012.1
20260906025005 75 265 0.0 2.0 0.00 0.02 0.02 89 1012.4
20260906024504 75 360 0.0 2.0 0.00 0.02 0.02 89 1012.2
20260906024006 75 360 0.0 1.0 0.00 0.02 0.02 89 1011.8
20260906023507 75 360 0.0 1.0 0.00 0.02 0.02 89 1011.5
20260906023012 75 360 0.0 1.0 0.00 0.02 0.02 90 1011.4
20260906022504 75 360 0.0 2.0 0.00 0.02 0.02 90 1011.4
20260906022004 75 360 0.0 2.0 0.00 0.02 0.02 90 1011.5
20260906021504 75 360 0.0 0.0 0.00 0.02 0.02 90 1011.3
20260906021003 76 360 0.0 0.0 0.00 0.02 0.02 88 1011.1
20260906020504 76 265 0.0 2.0 0.00 0.02 0.02 87 1011.0
20260906020002 77 263 0.0 2.0 0.00 0.02 0.02 86 1011.0
20260906015502 77 360 0.0 1.0 0.00 0.02 0.02 85 1010.9
20260906015002 77 263 0.0 1.0 0.00 0.02 0.02 85 1011.1
20260906014503 77 263 0.0 1.0 0.00 0.02 0.02 85 1011.1
20260906014002 77 360 0.0 1.0 0.00 0.02 0.02 86 1011.0
20260906013502 78 263 0.0 1.0 0.00 0.02 0.02 83 1011.0
20260906013002 77 360 0.0 1.0 0.00 0.02 0.02 84 1011.0
20260906012502 77 263 0.0 0.0 0.00 0.02 0.02 85 1011.0
20260906012002 77 263 0.0 0.0 0.00 0.02 0.02 85 1010.8
20260906011502 78 264 0.0 2.0 0.00 0.02 0.02 84 1010.6
20260906011000 79 264 0.0 2.0 0.00 0.02 0.02 81 1010.5
20260906010500 78 263 0.0 2.0 0.00 0.02 0.02 83 1010.7
20260906010001 78 360 0.0 2.0 0.00 0.02 0.02 86 1010.8
20260906005600 77 360 0.0 2.0 0.00 0.02 0.02 87 1010.8
20260906005101 77 360 0.0 0.0 0.00 0.02 0.02 88 1011.0
20260906004600 77 360 0.0 0.0 0.00 0.02 0.02 88 1011.1
20260906004101 77 360 0.0 0.0 0.00 0.02 0.02 88 1011.0
20260906003601 77 271 0.0 0.0 0.00 0.02 0.02 88 1011.2
20260906003100 78 271 0.0 0.0 0.00 0.02 0.02 86 1011.2
20260906002559 78 271 0.0 0.0 0.00 0.02 0.02 85 1011.2
20260906002101 79 271 0.0 0.0 0.00 0.02 0.02 84 1011.2
20260906001559 78 271 0.0 0.0 0.00 0.02 0.02 85 1011.0
20260906001059 78 271 0.0 0.0 0.00 0.02 0.02 86 1011.0
20260906000559 79 271 0.0 0.0 0.00 0.02 0.02 85 1011.0
20260906000058 80 271 0.0 0.0 0.00 0.02 0.02 83 1010.9
20260905235601 80 271 0.0 1.0 0.00 0.02 0.02 81 1011.0
20260905235100 80 271 0.0 1.0 0.00 0.02 0.02 81 1010.9
20260905234612 79 271 0.0 0.0 0.00 0.02 0.02 81 1010.7
20260905234100 80 271 0.0 0.0 0.00 0.02 0.02 80 1010.7
20260905233558 80 271 0.0 0.0 0.00 0.02 0.02 79 1010.8
20260905233058 81 271 0.0 0.0 0.00 0.02 0.02 79 1010.8
20260905232557 82 271 0.0 1.0 0.00 0.02 0.02 78 1010.8
20260905232057 83 271 0.0 1.0 0.00 0.02 0.02 75 1010.7
20260905231557 83 271 0.0 1.0 0.00 0.02 0.02 77 1010.8
20260905231058 86 271 0.0 2.0 0.00 0.02 0.02 72 1010.9
20260905230557 87 271 0.0 2.0 0.00 0.02 0.02 63 1010.6
20260905230123 87 271 0.0 2.0 0.00 0.02 0.02 66 1010.7
20260905225559 86 279 0.0 2.0 0.00 0.02 0.02 68 1010.7
20260905225056 87 279 0.0 1.0 0.00 0.02 0.02 70 1010.6
20260905224556 88 279 0.0 2.0 0.00 0.02 0.02 65 1010.6
20260905224056 87 279 0.0 2.0 0.00 0.02 0.02 65 1010.5
20260905223555 88 241 0.0 2.0 0.00 0.02 0.02 64 1010.6
20260905223055 88 241 0.0 2.0 0.00 0.02 0.02 69 1010.8
20260905222554 89 241 0.0 2.0 0.00 0.02 0.02 64 1010.9
20260905222054 88 241 1.0 2.0 0.00 0.02 0.02 63 1010.8
20260905221557 89 241 0.0 2.0 0.00 0.02 0.02 65 1010.9
20260905221057 90 241 0.0 2.0 0.00 0.02 0.02 58 1011.0
20260905220553 90 241 1.0 2.0 0.00 0.02 0.02 59 1010.9
20260905220053 89 241 0.0 4.0 0.00 0.02 0.02 59 1010.9
20260905215554 89 241 0.0 4.0 0.00 0.02 0.02 57 1010.9
20260905215057 89 188 0.0 3.0 0.00 0.02 0.02 62 1011.0
20260905214553 89 188 1.0 6.0 0.00 0.02 0.02 60 1010.9
20260905214053 88 192 2.0 6.0 0.00 0.02 0.02 62 1011.0
20260905213553 87 292 0.0 2.0 0.00 0.02 0.02 68 1010.9
20260905213052 85 301 0.0 1.0 0.00 0.02 0.02 77 1010.8
20260905212552 85 301 0.0 1.0 0.00 0.02 0.02 80 1010.9
20260905212052 84 301 0.0 1.0 0.00 0.02 0.02 84 1011.2
20260905211557 82 301 0.0 1.0 0.00 0.02 0.02 84 1011.3
20260905211051 80 301 0.0 0.0 0.00 0.02 0.02 87 1011.3
20260905210550 80 301 0.0 0.0 0.00 0.02 0.02 87 1011.2
20260905210050 80 301 0.0 0.0 0.00 0.02 0.02 85 1011.4
20260905205550 81 301 0.0 0.0 0.00 0.02 0.02 85 1011.3
20260905205050 80 301 0.0 1.0 0.00 0.02 0.02 83 1011.2
20260905204550 82 301 0.0 1.0 0.00 0.02 0.02 81 1011.1
20260905204049 81 301 0.0 1.0 0.00 0.02 0.02 81 1011.1
20260905203549 81 301 0.0 1.0 0.00 0.02 0.02 81 1011.5
20260905203055 83 328 0.0 3.0 0.00 0.02 0.02 76 1011.5
20260905202547 84 175 1.0 3.0 0.00 0.02 0.02 70 1011.7
20260905202048 85 175 0.0 3.0 0.00 0.02 0.02 68 1011.6
20260905201548 85 188 0.0 3.0 0.00 0.02 0.02 71 1011.7
20260905201046 83 259 1.0 2.0 0.00 0.02 0.02 73 1011.9
20260905200547 81 291 0.0 2.0 0.01 0.02 0.02 78 1011.7
20260905200046 79 309 0.0 2.0 0.02 0.02 0.02 75 1011.7
20260905195546 78 309 0.0 2.0 0.02 0.02 0.02 80 1011.8
20260905195049 76 309 0.0 2.0 0.02 0.02 0.02 87 1012.0
20260905194544 74 360 0.0 1.0 0.02 0.02 0.02 89 1012.0
20260905194045 74 360 0.0 1.0 0.02 0.02 0.02 90 1012.2
20260905193544 73 360 0.0 2.0 0.02 0.02 0.02 89 1011.9
20260905193102 74 360 0.0 2.0 0.02 0.02 0.02 88 1012.1
20260905192543 74 360 0.0 5.0 0.02 0.02 0.02 85 1012.0
20260905192043 74 360 2.0 6.0 0.02 0.02 0.02 83 1012.3
20260905191544 75 360 1.0 6.0 0.02 0.02 0.02 82 1012.4
20260905191042 76 360 2.0 6.0 0.02 0.02 0.02 81 1012.6
20260905190543 77 275 1.0 7.0 0.01 0.01 0.01 80 1012.8
20260905190042 79 263 1.0 6.0 0.00 0.00 0.00 76 1012.9
20260905185541 81 275 2.0 6.0 0.00 0.00 0.00 74 1012.8
20260905185042 83 281 0.0 7.0 0.00 0.00 0.00 73 1012.5
20260905184542 85 267 1.0 7.0 0.00 0.00 0.00 71 1012.6
20260905184041 86 21 1.0 5.0 0.00 0.00 0.00 70 1012.6
20260905183543 88 32 2.0 8.0 0.00 0.00 0.00 68 1012.6
20260905183046 89 310 2.0 8.0 0.00 0.00 0.00 65 1012.3
20260905182541 91 56 1.0 9.0 0.00 0.00 0.00 61 1012.4
20260905182041 93 336 2.0 5.0 0.00 0.00 0.00 58 1012.0
20260905181541 94 336 2.0 6.0 0.00 0.00 0.00 57 1012.3
20260905181039 93 53 2.0 6.0 0.00 0.00 0.00 58 1012.3
20260905180539 93 261 1.0 4.0 0.00 0.00 0.00 59 1012.2
20260905180038 93 233 1.0 6.0 0.00 0.00 0.00 56 1012.4
20260905175538 95 38 3.0 6.0 0.00 0.00 0.00 54 1012.7
20260905175037 95 271 2.0 8.0 0.00 0.00 0.00 54 1012.7
20260905174535 95 265 2.0 7.0 0.00 0.00 0.00 56 1012.7
20260905174034 94 360 1.0 4.0 0.00 0.00 0.00 58 1012.6
20260905173533 94 13 1.0 5.0 0.00 0.00 0.00 57 1012.7
20260905173030 93 65 1.0 5.0 0.00 0.00 0.00 56 1012.8
20260905172530 94 99 2.0 9.0 0.00 0.00 0.00 57 1012.8
20260905172030 93 102 2.0 9.0 0.00 0.00 0.00 58 1012.9
20260905171535 93 250 2.0 5.0 0.00 0.00 0.00 56 1012.8
20260905171027 93 311 1.0 6.0 0.00 0.00 0.00 56 1012.9
20260905170527 93 59 2.0 4.0 0.00 0.00 0.00 58 1012.9
20260905170025 93 37 1.0 5.0 0.00 0.00 0.00 57 1012.9
20260905165524 92 294 2.0 7.0 0.00 0.00 0.00 58 1013.0
20260905165023 93 115 1.0 5.0 0.00 0.00 0.00 61 1013.0
20260905164525 92 288 1.0 5.0 0.00 0.00 0.00 60 1013.2
20260905164022 92 86 1.0 4.0 0.00 0.00 0.00 60 1013.3
20260905163525 92 91 1.0 4.0 0.00 0.00 0.00 61 1013.4
20260905163021 91 323 1.0 4.0 0.00 0.00 0.00 63 1013.5
20260905162522 92 67 2.0 4.0 0.00 0.00 0.00 61 1013.5
20260905162020 92 248 2.0 4.0 0.00 0.00 0.00 62 1013.6
20260905161519 91 48 1.0 3.0 0.00 0.00 0.00 63 1013.6
20260905161018 91 46 1.0 4.0 0.00 0.00 0.00 65 1013.6
20260905160515 91 32 1.0 4.0 0.00 0.00 0.00 64 1013.7
20260905160024 90 57 0.0 4.0 0.00 0.00 0.00 64 1013.6
20260905155513 89 312 1.0 4.0 0.00 0.00 0.00 65 1013.7
20260905155014 89 64 1.0 4.0 0.00 0.00 0.00 67 1013.7
20260905154511 89 70 2.0 4.0 0.00 0.00 0.00 66 1013.6
20260905154011 88 243 2.0 4.0 0.00 0.00 0.00 66 1013.7
20260905153511 88 290 1.0 3.0 0.00 0.00 0.00 66 1013.7